Regional Weather Roundup
Issued by NWS

Home | Current Version | Previous Version | Text Only | Print | Product List | Glossary Off
Versions: 1 2 3 4 5 6 7 8 9 10 11 12 13 14 15 16 17 18 19 20 21 22 23 24 25 26 27 28 29 30 31 32 33 34 35 36 37 38 39 40 41 42 43 44 45 46 47 48 49 50

000
ASUS43 KLOT 200106
RWRIL

ILLINOIS REGIONAL WEATHER ROUNDUP
NATIONAL WEATHER SERVICE CHICAGO/ROMEOVILLE IL
800 PM CDT SUN OCT 19 2014

NOTE: "FAIR" INDICATES FEW OR NO CLOUDS BELOW 12,000 FEET WITH NO
SIGNIFICANT WEATHER AND/OR OBSTRUCTIONS TO VISIBILITY.

* THESE STATIONS ARE NOT UNDER NWS QUALITY CONTROL. THEY ALSO MAY NOT
  REPORT WEATHER SUCH AS PRECIPITATION OR FOG.

ILZ001-002-007-009-015-016-024-200200-
NORTHWEST ILLINOIS

CITY           SKY/WX    TMP DP  RH WIND       PRES   REMARKS
MOLINE         PTCLDY    56  42  59 SW7       29.93F
STERLING*      MOCLDY    55  41  58 SW3       29.93F
SAVANNA*       CLEAR     54  43  66 S3        29.93R
$$

ILZ003-004-008-010-011-017-018-200200-
NORTH CENTRAL ILLINOIS

CITY           SKY/WX    TMP DP  RH WIND       PRES   REMARKS
ROCKFORD       MOCLDY    52  42  69 S10       29.95F
FREEPORT*      CLEAR     52  41  65 SW8       29.94S
ROCHELLE*      PTCLDY    51  43  73 CALM      29.95F
DE KALB*       PTCLDY    49  40  73 S10       29.95F
PERU*          CLOUDY    55  43  63 S10       29.97F
$$

ILZ005-006-012>014-019>023-200200-
NORTHEAST ILLINOIS

CITY           SKY/WX    TMP DP  RH WIND       PRES   REMARKS
CHICAGO-OHARE  MOCLDY    52  42  69 S12       29.95F
CHICAGO-MIDWAY CLOUDY    54  43  66 S13       29.97F
AURORA         MOCLDY    52  42  69 S8        29.96F
LANSING*       CLOUDY    51  42  71 S12       29.99F
JOLIET*        CLOUDY    53  43  68 S7        29.98F
WAUKEGAN       PTCLDY    50  41  71 S13       29.92F
DUPAGE AIRPORT MOCLDY    52  43  71 S10       29.95F
KANKAKEE*      CLOUDY    51  43  76 S10       30.02S
WHEELING       PTCLDY    53  42  66 S12       29.96F
MORRIS*        CLOUDY    54  45  73 S6        29.97F
ROMEOVILLE*    CLOUDY    51  43  73 S8        29.98F
NORTHERLY ISL    N/A     53  41  63 SW12        N/A
$$

LMZ740>746-200200-
SOUTHERN LAKE MICHIGAN

STATION/POSITION SKY/WX   TEMP    WIND        PRES    VSBY  WAVE
                          AIR SEA DIR/SP/G                  HT/PER
                          (F)     (DEG/KT/KT) (MB)    (MI)  (FT/S)
SOUTHERN BUOY              54 55  200/ 21/ 25 1013.5F         5/ 5
WAUKEGAN HARBOR            53     200/ 15/ 18   N/A
HARRISON CRIB              53     190/ 19/ 22   N/A
BURNHAM HARBOR             53     190/ 13/ 15   N/A
CALUMET HARBOR             53     180/ 10/ 16 1013.9S
MICHIGAN CITY              52     180/ 12/ 14   N/A
$$

ILZ025>027-034>036-040-047-049-050-058-095>099-200200-
WEST-CENTRAL ILLINOIS

CITY           SKY/WX    TMP DP  RH WIND       PRES   REMARKS
QUINCY         MOCLDY    54  44  69 S6        30.01S
GALESBURG*     MOCLDY    55  44  66 S9        29.97F
MACOMB*        CLOUDY    57  44  63 S8        30.02S
JACKSONVILLE*  MOCLDY    56  47  71 S5        30.02F
PITTSFIELD*    MOCLDY    55  46  69 S6        30.03F
$$

ILZ028>032-037-038-041>044-048-051>054-059>061-200200-
CENTRAL ILLINOIS

CITY           SKY/WX    TMP DP  RH WIND       PRES   REMARKS
PONTIAC        CLOUDY    55  46  71 S10       30.00F
BLOOMINGTON    MOCLDY    53  45  74 SW13      30.03S
DECATUR        MOCLDY    51  44  77 S8        30.05S
PEORIA         MOCLDY    57  44  62 SW13      30.00S
LACON*         CLOUDY    54  42  63 S3        29.98F
LINCOLN*       PTCLDY    52  44  73 S3        30.02S
SPRINGFIELD    MOCLDY    51  44  77 S6        30.04F
TAYLORVILLE    MOCLDY    50  45  81 S5        30.05S
$$

ILZ033-039-045-046-055>057-062-063-200200-
EAST-CENTRAL ILLINOIS

CITY           SKY/WX    TMP DP  RH WIND       PRES   REMARKS
CHAMPAIGN      PTCLDY    48  42  80 S9        30.04F
DANVILLE*      PTCLDY    47  42  83 S8        30.02F
RANTOUL*       PTCLDY    48  42  80 S7        30.05F
MATTOON        MOCLDY    49  42  77 S7        30.05F
PARIS*         PTCLDY    44  42  93 SE3       30.08F
$$

ILZ079-100>102-200200-
SOUTHWEST ILLINOIS

CITY           SKY/WX    TMP DP  RH WIND       PRES   REMARKS
BELLEVILLE     PTCLDY    53  47  78 S5        30.06S
CAHOKIA*       CLEAR     55  46  71 S6        30.05F
SPARTA*        PTCLDY    55  46  71 S5        30.08F
$$

ILZ064>066-069>071-074>076-080>082-084>086-088>090-092>094-200200-
SOUTH-CENTRAL ILLINOIS

CITY           SKY/WX    TMP DP  RH WIND       PRES   REMARKS
CARBONDALE     PTCLDY    51  44  77 S3        30.09F
CAIRO*         CLOUDY    52  46  80 CALM      30.11S
EFFINGHAM*     MOCLDY    51  42  71 SE7       30.07F
MARION         PTCLDY    54  46  76 CALM      30.10S
MT. VERNON     PTCLDY    48  43  81 CALM      30.09F
CENTRALIA*     CLEAR     49  43  79 SE6       30.07F
SALEM*         CLEAR     54  47  77 S3        30.08F
METROPOLIS*    CLOUDY    52  48  87 CALM      30.10F
$$

ILZ067-068-072-073-078-083-087-091-200200-
SOUTHEAST ILLINOIS

CITY           SKY/WX    TMP DP  RH WIND       PRES   REMARKS
LAWRENCEVILLE  PTCLDY    46  44  93 CALM      30.10F
FLORA*         PTCLDY    47  42  82 SE5       30.09F
FAIRFIELD*     PTCLDY    46  44  93 CALM      30.08F
HARRISBURG*    PTCLDY    48  45  91 CALM      30.11F
ROBINSON*      PTCLDY    46  43  90 S5        30.10F
CARMI*         PTCLDY    49  45  85 CALM      30.10S
$$

ABBREVIATIONS USED IN REMARKS
   TC - TEMPERATURE IN CELSIUS
  WCI - WIND CHILL INDEX
   HX - HEAT INDEX
  VSB - VISIBILITY
$$




USA.gov is the U.S. government's official web portal to all federal, state and local government web resources and services.